Back to catalog

FENGYUN 1C DEB

AlivePO
NORAD 37595·DEBRIS·🇨🇳 China

Launched May 10, 1999 from Taiyuan Satellite Launch Center

Loading…

Next Passes (next 24 hours)

TLE

FreshSource: Space-Track

Epoch: Sep 12, 2026, 11:47 UTC

1 37595U 99025EKP 26255.49112561  .00022560  00000-0  25302-2 0  9992
2 37595  99.0392 143.8964 0015686 226.3849 261.3779 14.86731780666534

Track FENGYUN 1C DEB in real time with AllMySat

Download on the App Store